Location: Unspecified
(0.0000°N, 0.0000°E)
Time: 17:32:58
(UTC+00:00)

Hubble Space Telescope - Visible Passes

Search period start: 21 March 2019 00:00
Search period end: 31 March 2019 00:00
Orbit: 537 x 540 km, 28.5° (Epoch: 21 March)

Date Brightness Start Highest point End Pass type
(mag) Time Alt. Az. Time Alt. Az. Time Alt. Az.
21 Mar 3.9 03:50:37 11° NE 03:50:37 11° NE 03:50:54 10° NE visible
21 Mar 0.9 05:26:09 10° NW 05:30:15 75° NNE 05:34:23 10° ESE visible
21 Mar 3.3 19:03:51 10° WNW 19:06:16 15° NNW 19:08:41 10° N visible
22 Mar 4.1 03:41:16 10° ENE 03:41:16 10° ENE 03:41:23 10° ENE visible
22 Mar 0.7 05:16:39 17° WNW 05:19:47 75° SSW 05:23:55 10° SE visible
22 Mar 3.6 18:54:41 10° NW 18:55:51 11° NNW 18:57:02 10° N visible
23 Mar 1.0 05:07:19 26° W 05:09:18 51° SSW 05:13:20 10° SE visible
24 Mar 1.5 04:57:58 32° WSW 04:58:50 36° SSW 05:02:39 10° SE visible
25 Mar 2.1 04:48:35 26° SSW 04:48:35 26° SSW 04:51:51 10° SSE visible
26 Mar 2.8 04:39:09 17° S 04:39:09 17° S 04:40:55 10° SSE visible
27 Mar 3.4 04:29:40 10° S 04:29:40 10° S 04:29:43 10° S visible
